SCP
0 0 0 0 0 0 0 0 0 0 0 0 0 0 0 0 0 0 0 0 0 0 0 0 0 0 0 0 0 0 0 0 0 0 0 0 0 0 0 0 0 0 -0 -0
0 0 0 0 0 0 0 0 0 0 0 0 0 0 0 0 0 0 0 0 0 0 0 0 0 0 0 0 0 0 0 0 0 0 0 0 0 0 0 0 0 0 0 0
0 0 0 0 0 0 0 0 0 0 0 0 0 0 0 0 0 0 0 0 0 0 0 0 0 0 0 0 0 0 0 0 0 0 0 0 0 0 0 0 0 0 0 0
0 0 0 0 0 0 0 0 0 0 0 0 0 0 0 0 0 0 0 0 0 0 0 0 0 0 0 0 0 0 0 0 0 0 0 0 0 0 0 0 0 0 0 0
0 0 0 0 0 0 0 0 0 0 0 0 0 0 0 0 0 0 0 0 0 0 0 0 0 0 0 0 0 0 0 0 0 0 0 0 0 0 0 0 0 0 0 0
0 0 0 0 0 0 0 0 0 0 0 0 0 0 0 0 0 0 0 0 0 0 0 0 0 0 0 0 0 0 0 0 0 0 0 0 0 0 0 0 0 0 0 0
0 0 0 0 0 0 0 0 0 0 0 0 0 0 0 0 0 0 0 0 0 0 0 0 0 0 0 0 0 0 0 0 0 0 0 0 0 0 0 0 0 0 0 0
0 0 0 0 0 0 0 0 0 0 0 0 0 0 0 0 0 0 0 0 0 0 0 0 0 0 0 0 0 0 0 0 0 0 0 0 0 0 0 0 0 0 0 0
0 0 0 0 0 0 0 0 0 0 0 0 0 0 0 0 0 0 0 0 0 0 0 0 0 0 0 0 0 0 0 0 0 0 0 0 0 0 0 0 0 0 0 0
0 0 0 0 0 0 0 0 0 0 0 0 0 0 0 0 0 0 0 0 0 0 0 0 0 0 0 0 0 0 0 0 0 0 0 0 0 0 0 0 0 0 0 0
0 0 0 0 0 0 0 0 0 0 0 0 0 0 0 0 0 0 0 0 0 0 0 0 0 0 0 0 0 0 0 0 0 0 0 0 0 0 0 0 0 0 0 0
0 0 0 0 0 0 0 0 0 0 0 0 0 0 0 0 0 0 0 0 0 0 0 0 0 0 0 0 0 0 0 0 0 0 0 0 0 0 0 0 0 0 0 0
0 0 0 0 0 0 0 0 0 0 0 0 0 0 0 0 0 0 0 0 0 0 0 0 0 0 0 0 0 0 0 0 0 0 0 0 0 0 0 0 0 0 0 0
0 0 0 0 0 0 0 0 0 0 0 0 0 0 0 0 0 0 0 0 0 0 0 0 0 0 0 0 0 0 0 0 0 0 0 0 0 0 0 0 0 0 0 0
0 0 0 0 0 0 0 0 0 0 0 0 0 0 0 0 0 0 0 0 0 0 0 0 0 0 0 0 0 0 0 0 0 0 0 0 0 0 0 0 0 0 0 0
0 0 0 0 0 0 0 0 0 0 0 0 0 0 0 0 0 0 0 0 0 0 0 0 0 0 0 0 0 0 0 0 0 0 0 0 0 0 0 0 0 0 0 0
0 0 0 0 0 0 0 0 0 0 0 0 0 0 0 0 0 0 0 0 0 0 0 0 0 0 0 0 0 0 0 0 0 0 0 0 0 0 0 0 0 0 0 0
0 0 0 0 0 0 0 0 0 0 0 0 0 0 0 0 0 0 0 0 0 0 0 0 0 0 0 0 0 0 0 0 0 0 0 0 0 0 0 0 0 0 0 0
0 0 0 0 0 0 0 0 0 0 0 0 0 0 0 0 0 0 0 0 0 0 0 0 0 0 0 0 0 0 0 0 0 0 0 0 0 0 0 0 0 0 0 0
0 0 0 0 0 0 0 0 0 0 0 0 0 0 0 0 0 0 0 0 0 0 0 0 0 0 0 0 0 0 0 0 0 0 0 0 0 0 0 0 0 0 0 0
0 0 0 0 0 0 0 0 0 0 0 0 0 0 0 0 0 0 0 0 0 0 0 0 0 0 0 0 0 0 0 0 0 0 0 0 0 0 0 0 0 0 0 0
0 0 0 0 0 0 0 0 0 0 0 0 0 0 0 0 0 0 0 0 0 0 0 0 0 0 0 0 0 0 0 0 0 0 0 0 0 0 0 0 0 0 0 0
0 0 0 0 0 0 0 0 0 0 0 0 0 0 0 0 0 0 0 0 0 0 0 0 0 0 0 0 0 0 0 0 0 0 0 0 0 0 0 0 0 0 0 0
0 0 0 0 0 0 0 0 0 0 0 0 0 0 0 0 0 0 0 0 0 0 0 0 0 0 0 0 0 0 0 0 0 0 0 0 0 0 0 0 0 0 0 0
0 0 0 0 0 0 0 0 0 0 0 0 0 0 0 0 0 0 0 0 0 0 0 0 0 0 0 0 0 0 0 0 0 0 0 0 0 0 0 0 0 0 0 0
0 0 0 0 0 0 0 0 0 0 0 0 0 0 0 0 0 0 0 0 0 0 0 0 0 0 0 0 0 0 0 0 0 0 0 0 0 0 0 0 0 0 0 0
0 0 0 0 0 0 0 0 0 0 0 0 0 0 0 0 0 0 0 0 0 0 0 0 0 0 0 0 0 0 0 0 0 0 0 0 0 0 0 0 0 0 0 0
Wind_Speed
3 3 3 5 7 7 8 8 10 9 11 13 7 7 7 7 7 7 7 7 8 8 7 6 6 6 6 6 5 4 4 4 5 5 4 5 6 6 7 7 8 8 9 10
2 1 2 7 10 8 11 10 10 12 17 11 5 3 4 5 6 7 6 7 7 7 7 7 7 7 6 5 4 3 3 4 4 5 5 6 6 7 8 9 9 10 11 11
4 2 4 11 12 12 9 9 10 14 13 4 4 6 7 6 6 6 6 6 7 7 7 7 7 6 5 4 1 0 1 3 4 5 5 7 8 9 10 11 12 14 14 13
4 4 9 11 2 5 7 10 10 9 7 6 7 6 5 5 6 6 6 6 6 6 7 6 5 4 3 3 2 1 2 3 4 5 6 7 9 11 12 13 13 15 16 16
5 6 10 12 7 7 8 9 7 9 7 4 3 3 3 5 6 7 7 7 8 8 7 5 5 4 4 3 2 1 2 3 4 5 6 8 10 11 12 12 13 14 15 14
7 7 12 11 3 2 4 7 6 7 7 6 7 4 7 7 7 8 8 7 7 6 5 5 5 4 4 3 1 1 2 3 4 4 5 8 10 11 10 11 13 14 15 14
8 8 12 10 4 4 5 11 5 7 9 10 11 11 7 7 8 9 8 8 7 6 6 6 5 4 4 2 2 2 2 3 4 5 6 8 9 9 10 12 13 13 15 15
7 8 14 7 9 10 11 5 6 8 10 11 11 10 9 9 9 9 8 7 7 7 6 6 5 4 3 2 2 2 1 3 5 6 7 7 8 9 9 10 12 13 13 13
13 12 6 9 11 11 7 7 8 9 10 12 12 12 11 11 11 10 10 9 7 7 7 5 4 4 3 2 1 1 2 5 6 7 7 7 8 9 9 8 9 11 11 12
6 8 7 8 9 8 7 10 11 11 12 12 13 13 12 11 10 10 9 8 7 7 7 6 5 4 3 1 0 1 4 6 6 6 6 6 6 7 7 8 9 11 12 12
8 8 6 8 12 14 12 10 10 10 11 13 14 14 14 11 10 9 7 6 7 7 7 6 5 4 2 2 2 3 5 6 6 6 6 6 7 7 10 10 12 15 13 13
11 11 9 9 11 13 13 14 14 14 14 14 14 15 14 12 9 7 7 6 6 6 6 5 4 3 3 3 3 4 4 5 4 5 5 6 7 10 16 18 24 26 25 23
13 11 10 10 11 13 13 14 14 14 15 15 13 12 11 8 5 5 6 6 6 6 5 4 3 4 4 4 4 5 5 5 5 5 6 6 7 8 11 16 22 23 24 25
13 10 10 13 15 15 13 13 11 10 9 7 6 4 4 4 4 5 5 5 5 4 3 3 4 5 5 4 4 5 5 6 5 5 5 6 7 8 9 10 13 14 18 24
14 14 14 12 11 10 7 6 6 7 5 3 2 3 4 5 5 5 5 5 3 2 3 3 4 6 4 4 5 5 5 4 4 4 5 6 7 8 8 9 10 11 12 15
14 10 9 10 12 10 7 7 8 8 5 5 4 4 4 4 5 4 3 2 2 3 3 4 6 5 4 4 5 4 5 7 5 4 5 5 6 7 7 8 9 9 10 11
12 12 11 9 11 9 7 7 6 4 4 5 5 5 5 4 2 1 1 1 3 4 5 6 7 6 5 5 5 4 4 4 5 4 4 5 5 6 7 7 8 9 9 12
13 13 9 8 7 7 5 4 5 5 4 5 6 5 4 3 2 2 2 2 3 5 7 7 7 6 5 5 5 4 4 3 3 4 4 4 4 5 5 6 7 9 9 11
6 6 5 5 4 6 7 6 6 6 6 5 5 3 1 1 1 2 2 3 4 6 6 5 6 3 4 6 5 4 3 3 3 3 4 5 5 4 5 5 6 7 8 8
7 8 8 7 7 6 7 7 6 6 5 4 4 2 1 2 3 3 3 4 6 7 6 5 5 5 5 6 4 3 3 3 3 3 3 3 4 4 5 5 5 6 6 7
10 9 10 9 8 8 7 6 6 5 3 3 2 2 3 4 3 3 3 5 6 7 6 7 5 5 5 5 5 3 3 3 3 3 3 3 4 4 5 5 5 5 5 6
8 8 9 9 9 7 4 4 4 4 3 2 1 2 3 5 5 4 6 7 7 7 5 4 4 6 6 5 3 3 3 3 3 3 3 3 4 4 5 5 5 5 5 6
7 7 8 7 7 6 4 3 3 2 2 2 3 3 4 4 3 3 5 4 5 7 5 4 6 9 8 4 3 3 3 4 3 3 4 4 4 4 5 5 5 5 6 6
7 7 7 6 5 5 4 2 1 1 2 3 4 5 4 4 4 5 5 6 7 7 4 5 9 7 3 2 3 3 3 4 4 4 4 4 4 4 5 5 5 5 6 7
7 6 5 5 4 3 3 2 1 0 1 2 3 4 3 3 4 4 4 5 7 6 4 5 7 4 1 2 3 4 4 4 4 4 4 4 4 5 5 5 5 6 6 6
4 4 3 2 2 2 2 2 1 0 1 2 3 3 3 3 3 4 3 4 5 5 4 3 3 4 3 4 4 4 4 5 5 5 5 5 5 6 5 5 7 6 6 6
4 3 3 2 1 1 1 1 1 1 2 2 3 3 3 3 3 3 4 4 4 4 3 3 3 4 4 4 4 5 5 5 5 5 5 5 5 5 6 7 6 6 6 7
Wind_Direction
210 152 171 215 218 185 195 203 216 237 243 254 244 235 233 218 196 182 182 184 190 197 205 211 218 225 225 229 228 222 228 246 262 276 283 289 294 294 293 289 287 285 287 285
257 18 218 263 252 221 228 228 232 249 261 266 261 206 196 184 173 180 189 195 200 202 205 213 220 226 228 232 232 220 242 272 301 316 319 320 320 319 316 311 306 301 296 294
226 28 30 265 239 224 219 208 203 232 247 244 222 204 193 184 181 189 197 199 201 204 211 220 225 223 220 222 204 169 300 319 334 341 343 344 339 332 324 318 312 307 302 300
134 95 235 243 181 215 230 243 224 230 247 222 216 200 189 187 191 203 205 204 208 212 220 223 214 192 168 137 116 73 357 358 15 13 357 341 332 321 316 312 308 305 304 302
152 209 267 287 251 198 201 253 225 215 225 209 170 131 259 234 203 198 202 205 214 218 216 199 176 158 138 125 98 51 23 32 28 9 342 327 316 311 310 308 304 301 298 299
159 185 228 244 230 186 119 270 242 194 199 181 149 184 242 227 207 207 214 217 219 214 190 170 159 140 137 137 126 103 55 20 358 339 318 306 302 302 301 299 296 298 297 298
193 212 247 247 207 125 177 240 223 187 194 184 191 210 216 205 213 219 225 226 214 192 179 167 145 136 144 151 156 103 54 348 319 306 295 290 288 290 293 293 294 293 293 292
176 207 244 207 153 187 216 212 189 198 201 199 212 222 220 216 223 229 229 218 194 180 168 145 135 137 157 172 114 70 351 306 292 284 282 284 279 285 285 287 291 291 291 292
191 212 224 172 192 211 201 200 207 207 210 207 217 227 228 228 229 229 223 208 186 172 157 142 136 142 174 170 89 335 303 287 279 273 266 271 276 286 288 286 288 293 294 294
219 250 235 223 230 232 213 214 217 211 212 211 220 230 234 234 232 226 216 193 168 160 165 169 160 152 168 202 216 274 280 280 278 277 278 275 277 284 286 288 288 288 288 289
222 241 244 240 231 236 237 234 235 231 224 222 226 235 236 234 229 220 202 175 162 169 171 169 161 171 193 215 229 257 268 272 281 283 279 283 283 280 286 276 277 289 291 293
223 221 209 226 228 229 233 237 236 235 240 237 229 235 234 231 225 203 179 157 154 155 157 160 171 207 224 229 227 242 266 277 283 288 287 289 294 296 295 297 300 302 303 304
233 236 225 235 243 241 238 241 239 233 236 241 236 229 228 222 194 159 147 148 155 155 156 167 199 233 239 237 230 234 250 269 278 286 290 293 295 298 303 307 307 309 313 315
234 235 245 247 248 250 245 244 242 240 239 239 232 207 185 161 136 144 147 140 133 140 167 195 225 246 246 238 233 242 252 260 265 269 278 285 289 291 293 299 307 310 316 320
236 223 228 242 249 249 244 239 234 232 217 199 150 147 146 149 152 142 124 118 124 175 214 219 236 251 248 236 234 246 256 256 256 264 272 279 287 291 293 294 297 302 310 319
242 235 226 235 244 246 236 225 226 229 203 179 158 145 127 117 118 119 122 134 189 233 236 238 246 247 243 234 237 246 250 264 272 272 279 283 288 293 297 300 302 306 311 317
231 241 233 228 234 233 223 216 213 202 160 153 148 128 117 112 119 194 243 236 236 251 253 249 250 250 242 232 231 239 245 260 272 277 273 277 283 290 296 299 302 306 308 313
219 229 224 213 213 205 183 150 132 123 122 123 119 122 134 161 217 249 272 298 293 281 264 249 243 240 234 230 229 232 238 248 256 264 269 276 281 284 289 293 297 303 310 318
186 174 146 127 131 136 130 122 112 104 101 105 115 127 139 207 250 272 290 287 280 278 271 256 253 222 228 243 233 214 228 247 258 263 268 279 285 283 284 286 292 299 308 316
128 121 114 102 89 101 111 111 109 102 96 99 106 109 260 276 275 276 270 260 248 247 255 258 260 254 248 250 247 216 225 237 252 266 274 280 285 287 287 290 295 300 305 310
133 127 123 115 102 95 103 113 117 118 113 115 139 203 256 276 274 262 258 273 266 253 253 252 243 240 238 234 231 217 220 230 242 254 267 276 283 286 288 292 295 298 302 308
131 127 124 120 117 110 103 104 114 123 128 144 196 226 252 271 273 260 240 244 261 269 259 248 244 243 242 233 213 212 221 228 237 245 255 264 272 281 287 293 294 297 298 300
117 118 118 116 119 120 113 114 130 146 174 212 231 237 242 251 251 255 277 260 257 264 258 243 253 255 241 210 202 215 225 232 238 244 251 258 264 270 277 286 287 291 296 300
110 107 104 103 108 118 122 131 147 192 223 245 248 245 242 256 265 245 246 268 274 278 269 260 270 271 190 179 209 223 231 237 241 246 252 258 261 265 270 276 283 287 289 295
109 110 115 126 130 136 142 142 127 140 281 286 289 279 253 231 242 265 269 273 281 287 275 279 289 297 235 226 232 236 239 240 242 243 245 253 259 264 266 269 273 281 285 287
116 122 128 133 130 140 145 142 146 231 288 301 300 294 291 284 278 280 284 286 286 288 281 272 276 278 260 251 247 248 248 250 253 250 246 251 256 260 263 267 273 274 278 281
107 108 114 115 124 152 152 161 189 235 246 254 277 283 288 293 292 293 296 294 292 288 282 277 275 270 267 262 260 258 256 253 252 252 251 251 253 256 262 266 268 272 275 277